Location: Young's Pond
(41.2695°N, 72.7766°W)
Time: 19:42:38
(UTC-04:00)

Daily predictions for brighter satellites

Satellite Brightness Start Highest point End
(mag) Time Altitude Azimuth Time Altitude Azimuth Time Altitude Azimuth
Meteor 1-25 Rocket 4.4 20:07:26 10° S 20:13:11 64° E 20:18:57 10° NNE
Cosmos 1633 3.3 20:12:24 10° SSE 20:15:36 31° E 20:18:51 10° NNE
DELTA 2 R/B(2) 4.2 20:15:24 10° W 20:17:46 35° SSW 20:19:19 10° SE
Meteor 1-18 Rocket 4.4 20:12:16 10° N 20:18:11 68° E 20:24:04 10° SSE
SJ-6B 4.1 20:15:45 10° S 20:19:37 45° W 20:23:34 10° NNW
Cosmos 2360 4.4 20:16:54 10° S 20:22:20 48° ESE 20:27:47 10° NE
Cosmos 839 Rocket 4.4 20:19:09 10° S 20:25:01 41° ESE 20:30:45 10° NE
Cosmos 1812 2.8 20:21:14 10° N 20:25:08 85° W 20:29:01 10° S
Helios 1B rocket 3.8 20:23:52 10° NE 20:26:54 20° E 20:29:54 10° SE
Cosmos 1939 Rocket 3.5 20:24:40 10° SE 20:28:24 38° ENE 20:32:05 10° N
Cosmos 2297 Rocket 3.5 20:24:53 10° NW 20:30:10 41° WSW 20:35:24 10° S
Okean 2 Rocket 3.1 20:28:11 10° S 20:32:37 66° E 20:37:07 10° NNE
Cosmos 1602 4.5 20:29:22 10° SSE 20:32:47 31° E 20:36:13 10° NNE
Cosmos 1452 Rocket 3.8 20:29:29 10° S 20:34:28 44° ESE 20:39:29 10° NNE
Okean 1 3.2 20:35:27 10° N 20:39:26 70° E 20:43:23 10° SSE
ATLAS 2AS CENTAUR R/B 4.0 20:36:46 10° SSE 20:42:12 22° ESE 20:47:52 10° ENE
Cosmos 1536 4.3 20:40:16 13° SE 20:42:37 20° E 20:45:37 10° NE
Cosmos 407 Rocket 3.6 20:38:52 10° NNW 20:44:15 83° WSW 20:49:34 10° SSE
Cosmos 1190 Rocket 4.2 20:39:41 10° NNW 20:44:57 74° WSW 20:50:12 10° S
Lacrosse 5 rocket 1.8 20:42:50 10° NNW 20:46:19 40° NE 20:49:00 16° ESE
Resurs 1-3 4.2 20:43:45 10° S 20:48:04 57° W 20:52:24 10° NNW
NOSS 3-1 (A) 3.4 20:42:39 10° SW 20:48:23 86° NW 20:54:52 10° NE
Cosmos 44 3.4 20:45:55 10° NNW 20:50:15 53° NE 20:53:33 17° SE
DELTA 2 R/B (1) 3.7 20:45:26 10° W 20:51:01 69° S 20:55:26 16° ESE
Cosmos 2322 Rocket 2.8 20:49:34 10° S 20:54:41 35° ESE 20:59:50 10° NE
Helios 1A 3.2 20:52:04 14° SSE 20:55:35 53° ENE 20:59:44 10° N
Cosmos 2263 Rocket 3.3 20:54:14 10° N 20:59:12 30° NE 21:02:30 17° ESE
Cosmos 676 Rocket 4.0 20:55:28 10° NNW 21:00:48 89° WSW 21:05:48 12° SSE
GPS 2-05 Rocket1 3.9 20:59:12 10° SW 21:01:58 24° S 21:02:34 23° SSE
S3M 4.0 20:56:28 10° N 21:02:42 71° E 21:08:59 10° SSE
SL-16 R/B 2.5 20:57:50 10° S 21:03:07 41° ESE 21:08:25 10° NE
ARGOS 4.1 21:00:20 18° ESE 21:03:16 30° ENE 21:07:51 10° N
Cosmos 1553 Rocket 3.9 21:00:54 10° N 21:07:07 83° E 21:13:12 10° S
SAR-Lupe-4 4.2 21:07:32 26° ESE 21:08:52 37° ENE 21:12:12 10° N
Abrixas rocket 3.8 21:08:19 10° W 21:11:21 33° NNW 21:14:24 10° NE
Resurs 01 Rocket 3.5 21:07:54 10° SSW 21:11:47 29° W 21:15:41 10° NW
Meteor 1-13 Rocket 4.3 21:07:47 10° N 21:13:47 82° E 21:19:05 13° SSE
MINOTAUR R/B 4.2 21:12:05 10° NNW 21:14:51 71° ENE 21:15:27 49° SE
Cosmos 1023 Rocket 4.5 21:10:24 10° NNW 21:15:41 88° ENE 21:19:28 19° SSE
Cosmos 2266 Rocket 4.0 21:10:12 10° SSE 21:16:04 54° E 21:21:55 10° NNE
CZ-4B DEB 2.4 21:18:18 47° SE 21:18:55 66° ENE 21:21:47 10° N
Terra 3.9 21:18:59 11° ENE 21:19:55 12° ENE 21:21:36 10° NE
Atlas Centaur 2 3.4 21:15:37 10° WSW 21:22:18 33° S 21:24:56 25° SE
SeaSat 1 3.9 21:18:00 10° NNE 21:22:35 39° NW 21:27:09 10° SW
CZ-4C R/B 4.3 21:17:14 10° NW 21:23:42 34° WSW 21:30:38 10° S
Meteor 1-5 Rocket 4.3 21:20:23 20° SSE 21:23:46 47° E 21:28:51 10° NNE
H-2A R/B 3.1 21:22:24 24° E 21:24:03 29° ENE 21:28:20 10° N
Cosmos 1954 Rocket 4.3 21:19:22 10° NNW 21:24:38 67° WSW 21:28:44 17° S
Cosmos 1140 Rocket 3.6 21:19:55 10° NNW 21:25:09 78° WSW 21:28:44 21° S
Okean 1 Rocket 3.3 21:24:16 32° SE 21:25:43 44° E 21:29:53 10° NNE
SAR-Lupe-1 4.3 21:25:13 41° ESE 21:26:01 50° ENE 21:29:30 10° N
NOSS 2-3 (C) 4.1 21:21:56 10° S 21:26:20 45° ESE 21:31:22 10° NE
Cosmos 2360 Rocket 3.0 21:30:47 28° ESE 21:30:52 28° ESE 21:35:33 10° NE
Meteor 2-4 Rocket 3.6 21:26:07 10° N 21:31:38 82° E 21:35:12 24° SSE
Cosmos 1980 Rocket 3.6 21:26:39 10° SW 21:31:54 40° WNW 21:37:10 10° N
Meteor 1-29 2.8 21:28:43 10° NNE 21:32:09 88° WNW 21:33:53 27° SSW
Cosmos 2151 Rocket 4.3 21:29:28 10° SSW 21:33:45 53° W 21:38:04 10° N
Cosmos 44 Rocket 3.7 21:30:38 10° NW 21:35:16 54° WSW 21:37:44 26° S
Cosmos 1741 Rocket 4.0 21:30:05 10° NNW 21:35:19 70° ENE 21:37:32 35° SE
Cosmos 1300 Rocket 3.4 21:33:26 18° S 21:36:35 89° WNW 21:40:55 10° N
Cosmos 614 Rocket 4.1 21:32:46 10° NNW 21:37:51 70° WSW 21:40:45 26° S
Tiangong 1 1.2 21:35:58 10° W 21:38:33 58° NNW 21:38:33 58° NNW
BREEZE-M DEB (TANK) 3.2 21:36:43 10° WSW 21:39:57 76° NNW 21:50:19 10° ENE
MetOp-B 4.0 21:41:11 33° SSE 21:43:41 79° ENE 21:49:03 10° N
NOAA 11 4.3 21:43:07 25° S 21:46:24 78° WSW 21:51:56 10° NNW
YAOGAN 6 4.3 21:44:07 15° SSW 21:46:26 29° W 21:49:35 10° NW
SL-08 RB Rocket 3.8 21:47:21 47° ESE 21:48:15 56° ENE 21:52:45 10° N
ERS-1 Rocket 3.0 21:45:59 31° S 21:48:26 79° WSW 21:53:30 10° NNW
USA 245 4.0 21:46:31 39° SE 21:48:31 66° ENE 21:53:17 10° N
ERBS 3.9 21:45:54 10° WSW 21:49:11 37° NW 21:52:27 10° NNE
SPOT 5 3.0 21:48:22 44° SE 21:49:39 59° ENE 21:54:22 10° N
Meteor 1-11 Rocket 4.3 21:44:36 10° SSW 21:50:23 59° WNW 21:56:06 10° N
Cosmos 1025 Rocket 3.0 21:47:48 10° N 21:52:02 58° E 21:52:19 57° E
Lacrosse 5 4.0 22:02:48 13° ENE 22:02:48 13° ENE 22:03:20 10° ENE
H-2A R/B 4.2 21:59:25 14° NE 21:59:25 14° NE 22:01:09 10° NNE
Helios 1B rocket 4.1 21:58:34 10° N 22:02:15 32° WNW 22:05:55 10° SW
Cosmos 220 Rocket 3.9 21:59:56 10° NNW 22:04:12 67° ENE 22:04:16 67° ENE
NOSS 2-3 (D) 3.8 22:01:13 10° SW 22:05:53 86° NW 22:11:19 10° NE
ATLAS 3B R/B 3.2 21:59:42 10° NNW 22:06:10 45° NE 22:08:18 34° E
Cosmos 1110 Rocket 3.8 22:12:57 66° SE 22:13:25 71° ESE 22:18:34 10° NNE
Cosmos 1892 Rocket 4.2 22:15:40 10° N 22:19:16 46° NE 22:19:16 46° NE
SPOT 1/Viking Rocket 3.5 22:24:07 68° S 22:24:48 84° WSW 22:30:04 10° NNW
Lacrosse 5 rocket 3.1 22:22:22 10° WNW 22:24:42 21° WSW 22:24:42 21° WSW
Cosmos 1331 Rocket 3.8 22:31:13 82° SSW 22:31:26 90° S 22:36:42 10° NNE
Cosmos 1244 Rocket 4.4 22:29:41 49° SSW 22:31:30 84° W 22:37:41 10° N
ATLAS 2AS CENTAUR R/B 3.0 22:24:33 10° SW 22:32:15 84° NW 22:40:26 10° NE
Nadezhda 1 Rocket 4.3 22:27:47 10° N 22:33:51 48° ENE 22:34:03 47° E
Cosmos 2278 Rocket 4.1 22:32:00 10° N 22:35:41 17° NE 22:36:33 17° ENE
Cosmos 2322 Rocket 3.8 22:33:33 10° WSW 22:38:42 34° WNW 22:43:53 10° N
Landsat 7 3.9 22:42:03 73° NW 22:42:03 73° NW 22:46:26 10° NNW
Cosmos 2263 Rocket 3.0 22:37:54 10° NW 22:43:15 42° WSW 22:44:12 39° SW
ARGOS 4.3 22:41:52 30° SW 22:43:22 36° W 22:48:17 10° NNW
SL-16 R/B 4.0 22:42:24 10° WSW 22:47:19 30° NW 22:52:16 10° N
Cosmos 1455 Rocket 4.2 22:51:37 39° NNE 22:51:37 39° NNE 22:54:27 10° N
Cosmos 1844 Rocket 3.1 22:47:16 10° NNW 22:52:30 51° NE 22:52:30 51° NE
Cosmos 2322 3.7 22:52:33 70° WSW 22:53:01 76° WNW 22:58:43 10° NNE
Terra 2.3 22:57:53 58° NNW 22:57:53 58° NNW 23:01:45 10° NNW
SL-08 R/B 4.4 22:56:59 72° SSW 22:57:40 82° W 23:04:02 10° N
COSMOS 2428 3.3 23:00:05 46° NE 23:00:05 46° NE 23:04:10 10° NNE
Cosmos 2219 Rocket 3.7 23:05:32 26° NE 23:05:32 26° NE 23:08:08 10° NE
H-2A R/B 3.2 23:03:03 33° WSW 23:03:21 34° W 23:07:56 10° NNW
Atlas Centaur 2 4.3 23:05:25 10° WSW 23:07:34 17° SW 23:07:34 17° SW
Cosmos 2333 Rocket 3.8 23:15:38 24° NE 23:15:38 24° NE 23:17:59 10° NE
Cosmos 2360 Rocket 3.2 23:12:28 30° WSW 23:14:38 42° WNW 23:19:58 10° N
Cosmos 1844 4.2 23:09:17 10° NNW 23:14:05 54° NNE 23:14:05 54° NNE
CZ-2C R/B 4.5 23:13:22 10° NE 23:15:27 20° NE 23:15:27 20° NE
Cosmos 1745 Rocket 4.2 23:25:32 60° W 23:25:40 60° W 23:31:45 10° N
USA 238 DEB 3.8 23:22:22 10° NW 23:29:14 69° WSW 23:29:14 69° WSW
USA 238 3.8 23:22:28 10° NW 23:29:21 70° WSW 23:29:21 70° WSW
NOSS 3-2 (A) 4.0 23:23:12 10° NNW 23:30:44 72° NE 23:31:22 69° E
H-2A R/B 4.0 23:36:33 28° NNW 23:36:33 28° NNW 23:38:43 10° NNW
Lacrosse 5 3.2 23:41:50 37° NNW 23:41:50 37° NNW 23:46:19 10° NNE
Cosmos 2237 Rocket 3.8 23:44:54 25° NE 23:44:54 25° NE 23:47:19 10° NE
CZ-2C R/B 4.4 23:50:30 31° N 23:50:30 31° N 23:53:04 10° N
